Location: Unspecified
(49.8670°N, 0.0000°E)
Time: 21:28:43
(UTC+00:00)

S-56A Canister/Altair - Pass Details

Date: 19 June 2019
Orbit: 632 x 2500 km, 38.9° (Epoch: 15 July)

Event Time Altitude Azimuth Distance (km) Brightness Sun altitude
Rises 19:18:49 0° 253° (WSW) 3,922 11.9 6.2°
Reaches altitude 10° 19:22:19 10° 242° (WSW) 2,674 10.8 5.7°
Maximum altitude 19:27:12 26° 188° (S) 1,509 8.9 5.0°
Drops below altitude 10° 19:31:09 10° 132° (SE) 2,119 9.2 4.5°
Sets 19:33:36 0° 119° (ESE) 2,951 9.8 4.2°
